Location: Fort Worth, Tx
(32.7431°N, 97.3695°W)
Time: 03:12:55
(UTC-04:00)

Transit 4A - Visible Passes

Search period start: 21 July 2024 00:00
Search period end: 31 July 2024 00:00
Orbit: 869 x 973 km, 66.8° (Epoch: 20 July)

Date Brightness Start Highest point End Pass type
(mag) Time Alt. Az. Time Alt. Az. Time Alt. Az.
21 Jul 10.1 01:58:33 10° NNE 02:02:08 16° NE 02:03:06 15° ENE visible
21 Jul 8.9 03:42:57 10° NNW 03:46:32 38° NW 03:46:32 38° NW visible
22 Jul 9.6 02:06:40 10° N 02:11:15 23° NE 02:11:15 23° NE visible
22 Jul 9.4 03:52:07 10° NW 03:54:42 25° NW 03:54:42 25° NW visible
23 Jul 9.3 02:15:10 10° N 02:19:30 32° NE 02:19:30 32° NE visible
23 Jul 9.9 04:01:32 10° NW 04:02:56 16° NW 04:02:56 16° NW visible
24 Jul 9.1 02:23:51 10° NNW 02:27:48 38° N 02:27:48 38° N visible
25 Jul 10.2 00:49:27 10° NNE 00:51:37 12° NE 00:52:43 11° ENE visible
25 Jul 9.2 02:32:42 10° NNW 02:36:10 36° NNW 02:36:10 36° NNW visible
26 Jul 9.8 00:56:59 10° N 01:01:01 18° NE 01:01:08 18° NE visible
26 Jul 9.4 02:41:45 10° NNW 02:44:36 29° NW 02:44:36 29° NW visible
27 Jul 9.4 01:05:15 10° N 01:09:36 26° NE 01:09:36 26° NE visible
27 Jul 9.8 02:50:58 10° NW 02:53:04 21° NW 02:53:04 21° NW visible
28 Jul 9.1 01:13:48 10° N 01:18:07 35° NNE 01:18:07 35° NNE visible
28 Jul 10.1 03:00:28 10° NW 03:01:35 15° WNW 03:01:35 15° WNW visible
29 Jul 8.9 01:22:32 10° NNW 01:26:41 42° N 01:26:41 42° N visible
29 Jul 9.9 23:47:36 10° NNE 23:50:31 14° NE 23:51:48 13° ENE visible
30 Jul 9.0 01:31:27 10° NNW 01:35:17 41° NNW 01:35:17 41° NNW visible
